Stations météo

réclame
Mon MeteoGroup
Ajaccio, France (7761): Température de l'air & dewpoint: 19.09.2018 10:00:00 - 25.09.2018 10:00:00 (CEST)Ajaccio, France (7761): Température de l'air 5cm: 19.09.2018 10:00:00 - 25.09.2018 10:00:00 (CEST)Ajaccio, France (7761): Température de l'air -20cm & Température de l'air -100cm: 19.09.2018 10:00:00 - 25.09.2018 10:00:00 (CEST)Ajaccio, France (7761): Vitesse du vent & gusts: 19.09.2018 10:00:00 - 25.09.2018 10:00:00 (CEST)Ajaccio, France (7761): Direction du vent: 19.09.2018 10:00:00 - 25.09.2018 10:00:00 (CEST)Ajaccio, France (7761): reduced air pressure: 19.09.2018 10:00:00 - 25.09.2018 10:00:00 (CEST)Ajaccio, France (7761): visibility: 19.09.2018 10:00:00 - 25.09.2018 10:00:00 (CEST)Ajaccio, France (7761): Ensoleillement: 19.09.2018 10:00:00 - 25.09.2018 10:00:00 (CEST)Ajaccio, France (7761): Quantités de précipitations: 19.09.2018 10:00:00 - 25.09.2018 10:00:00 (CEST)
Date & Time tt [°C] td [°C] tt 5cm [°C] tt -20cm [°C] tt -100cm [°C] ff [km/h] ff [knt] fx [km/h] fx [knt] dd ppp [hPa] vv [km] sd [min] rr [mm]
25.09.2018 10:00:00 - - - - - - - - - - - - - -
25.09.2018 09:00:00 20,6 16,6 18,6 27,6 26,9 3 2 15 8 NE 1022,0 30 37 0,0
25.09.2018 08:00:00 18,4 16,2 17,1 27,7 26,8 8 4 17 9 NE 1021,3 25 4 0,0
25.09.2018 07:00:00 18,1 15,9 17,4 27,9 26,8 8 4 11 6 NE 1020,8 31 0 0,0
25.09.2018 06:00:00 18,3 16,1 17,7 28,0 26,8 8 5 14 8 NE 1020,7 31 0 0,0
25.09.2018 05:00:00 18,2 15,8 17,5 28,2 26,8 5 3 8 4 ENE 1020,4 36 0 0,0
25.09.2018 04:00:00 18,4 16,0 17,8 28,4 26,8 6 3 12 7 ENE 1020,2 30 0 0,0
25.09.2018 03:00:00 18,4 16,0 17,7 28,6 26,8 6 3 11 6 NE 1020,1 30 0 0,0
25.09.2018 02:00:00 18,5 15,9 17,6 28,7 26,8 3 2 13 7 NE 1020,0 31 0 0,0
25.09.2018 01:00:00 18,5 15,9 17,6 28,8 26,8 9 5 11 6 ENE 1019,7 32 0 0,0
25.09.2018 00:00:00 19,3 16,1 18,5 29,0 26,8 8 5 14 7 NE 1019,2 35 0 0,0
24.09.2018 23:00:00 20,1 16,5 19,1 29,1 26,8 8 4 11 6 ENE 1018,7 33 0 0,0
24.09.2018 22:00:00 20,7 16,5 19,7 29,1 26,8 7 4 11 6 NE 1018,4 34 0 0,0
24.09.2018 21:00:00 21,7 16,6 20,5 29,0 26,9 4 2 9 5 E 1017,8 36 0 0,0
24.09.2018 20:00:00 23,1 17,3 22,1 28,9 26,8 7 4 15 8 SSW 1016,6 20 0 0,0
24.09.2018 19:00:00 23,9 17,4 23,8 28,7 26,9 9 5 18 10 SW 1015,7 20 32 0,0
24.09.2018 18:00:00 25,3 17,0 26,7 28,3 26,8 10 5 22 12 SW 1015,0 20 60 0,0
24.09.2018 17:00:00 26,3 17,9 28,7 28,1 26,9 16 9 23 12 SW 1014,8 19 60 0,0
24.09.2018 16:00:00 26,8 17,3 29,8 27,7 26,8 13 7 25 14 SSW 1014,9 19 60 0,0
24.09.2018 15:00:00 27,0 16,3 33,7 27,5 26,8 16 8 29 16 SW 1015,1 18 60 0,0
24.09.2018 14:00:00 27,1 16,1 34,8 27,3 26,8 21 12 31 17 SW 1015,2 19 60 0,0
24.09.2018 13:00:00 26,8 16,1 33,8 27,2 26,8 22 12 43 23 WSW 1015,4 20 60 0,0
24.09.2018 12:00:00 27,9 15,9 33,5 27,2 26,8 20 11 31 17 W 1015,6 20 60 0,0
24.09.2018 11:00:00 27,5 19,3 33,6 27,3 26,8 13 7 20 11 SSW 1016,0 19 60 0,0
24.09.2018 10:00:00 26,1 17,5 25,5 27,4 26,8 3 2 14 8 ESE 1015,7 53 60 0,0
24.09.2018 09:00:00 21,2 15,9 19,7 27,6 26,8 11 6 17 9 NE 1015,2 43 60 0,0
24.09.2018 08:00:00 18,8 15,5 17,5 27,8 26,9 9 5 16 9 NNE 1014,8 47 19 0,0
24.09.2018 07:00:00 18,9 15,2 17,9 27,9 26,9 9 5 18 10 NE 1014,3 55 0 0,0
24.09.2018 06:00:00 18,9 15,6 18,1 28,1 26,9 14 8 20 11 NNE 1014,7 53 0 0,0
24.09.2018 05:00:00 18,7 15,6 17,8 28,3 26,8 8 4 18 10 NE 1015,1 50 0 0,0
24.09.2018 04:00:00 19,0 15,7 18,1 28,4 26,9 13 7 19 10 NNE 1015,6 48 0 0,0
24.09.2018 03:00:00 18,7 15,9 18,0 28,6 26,9 10 5 14 8 NE 1016,8 42 0 0,0
24.09.2018 02:00:00 19,2 16,6 18,4 28,7 26,9 9 5 12 6 NE 1017,2 40 0 0,0
24.09.2018 01:00:00 19,9 16,9 19,1 28,8 26,8 9 5 14 8 NNE 1017,5 43 0 0,0
24.09.2018 00:00:00 20,5 17,1 19,7 29,0 26,9 9 5 13 7 NE 1018,3 40 0 0,0
23.09.2018 23:00:00 21,2 17,8 20,4 29,0 26,9 9 5 13 7 NE 1018,1 40 0 0,0
23.09.2018 22:00:00 22,4 19,4 21,3 29,0 26,9 7 4 10 6 NE 1018,1 38 0 0,0
23.09.2018 21:00:00 22,9 19,7 21,9 28,9 26,9 5 3 7 4 NNE 1018,2 26 0 0,0
23.09.2018 20:00:00 23,7 20,2 22,5 28,8 26,9 4 2 15 8 SSW 1017,8 27 0 0,0
23.09.2018 19:00:00 25,0 20,3 24,6 28,5 26,9 11 6 19 11 SW 1017,7 40 56 0,0
23.09.2018 18:00:00 26,7 20,1 27,6 28,2 26,9 12 6 18 10 SW 1017,5 55 60 0,0
23.09.2018 17:00:00 27,0 19,6 29,1 27,9 26,9 16 9 38 20 WSW 1017,7 58 60 0,0
23.09.2018 16:00:00 27,4 20,5 29,2 27,6 26,9 26 14 35 19 W 1017,5 20 60 0,0
23.09.2018 15:00:00 28,0 19,2 33,8 27,3 26,9 23 12 31 17 WSW 1018,0 48 60 0,0
23.09.2018 14:00:00 27,8 20,6 34,6 27,1 26,9 21 11 36 19 WSW 1018,5 20 60 0,0
23.09.2018 13:00:00 28,0 21,3 34,4 27,0 26,9 17 9 28 15 WSW 1019,0 20 60 0,0
23.09.2018 12:00:00 26,6 18,5 33,4 27,1 26,9 13 7 20 11 W 1019,3 20 60 0,0
23.09.2018 11:00:00 26,5 16,4 32,2 27,2 26,9 7 4 10 6 WSW 1019,3 20 60 0,0
23.09.2018 10:00:00 24,9 11,5 24,8 27,4 26,9 7 4 11 6 NNE 1019,1 60 60 0,0
23.09.2018 09:00:00 19,8 11,3 17,6 27,6 26,9 9 5 16 9 NE 1019,0 60 60 0,0
23.09.2018 08:00:00 16,8 10,6 15,0 27,7 26,9 11 6 18 10 NE 1018,8 53 18 0,0
23.09.2018 07:00:00 15,8 11,2 15,1 28,0 26,9 12 6 18 10 NE 1018,4 60 0 0,0
23.09.2018 06:00:00 16,2 12,2 15,4 28,1 26,9 10 5 19 11 NE 1018,3 58 0 0,0
23.09.2018 05:00:00 16,6 12,9 15,8 28,4 26,9 14 7 19 10 NNE 1018,4 52 0 0,0
23.09.2018 04:00:00 16,8 13,5 16,0 28,5 26,9 11 6 15 8 NE 1018,7 42 0 0,0
23.09.2018 03:00:00 17,4 13,9 16,5 28,8 26,9 11 6 16 9 NNE 1019,2 44 0 0,0
23.09.2018 02:00:00 17,9 14,4 16,8 28,9 26,9 8 4 15 8 NE 1019,6 45 0 0,0
23.09.2018 01:00:00 18,1 14,6 17,2 29,1 26,9 10 5 16 8 NE 1020,0 39 0 0,0
23.09.2018 00:00:00 18,7 14,8 17,8 29,2 26,9 10 5 13 7 NE 1019,9 34 0 0,0
22.09.2018 23:00:00 19,5 15,4 18,7 29,3 26,9 9 5 14 7 NE 1020,0 35 0 0,0
22.09.2018 22:00:00 20,2 15,4 19,3 29,4 26,9 9 5 12 7 NE 1020,0 34 0 0,0
22.09.2018 21:00:00 21,2 15,5 19,9 29,3 26,9 6 3 10 6 E 1019,6 35 0 0,0
22.09.2018 20:00:00 22,8 15,6 21,5 29,2 26,9 5 3 13 7 SSE 1018,8 20 0 0,0
22.09.2018 19:00:00 24,1 15,8 23,9 29,0 26,9 9 5 16 9 SSW 1018,3 20 53 0,0
22.09.2018 18:00:00 25,7 16,5 27,2 28,7 26,9 13 7 24 13 SW 1018,2 20 60 0,0
22.09.2018 17:00:00 26,3 16,2 28,5 28,4 26,9 18 10 39 21 WSW 1018,0 20 60 0,0
22.09.2018 16:00:00 26,8 16,4 29,3 28,1 26,9 19 11 34 18 WSW 1017,9 20 60 0,0
22.09.2018 15:00:00 27,3 16,6 33,2 27,9 26,9 22 12 33 18 SW 1017,8 50 60 0,0
22.09.2018 14:00:00 28,5 17,7 33,2 27,7 26,9 19 11 27 15 SW 1017,9 51 54 0,0
22.09.2018 13:00:00 28,1 19,1 35,9 27,6 26,9 17 9 23 12 SSW 1018,2 41 60 0,0
22.09.2018 12:00:00 27,6 20,4 35,0 27,6 26,9 16 8 21 11 SW 1018,2 41 60 0,0
22.09.2018 11:00:00 26,9 19,3 32,7 27,7 26,9 8 4 19 10 WSW 1017,8 42 60 0,0
22.09.2018 10:00:00 26,0 17,4 26,3 27,9 26,9 6 3 14 8 NNE 1017,7 56 60 0,0
22.09.2018 09:00:00 21,8 16,7 19,7 28,0 26,9 10 5 14 7 NE 1017,7 43 60 0,0
22.09.2018 08:00:00 19,0 15,5 17,7 28,2 26,9 11 6 16 9 NE 1017,5 28 12 0,0
22.09.2018 07:00:00 18,4 15,5 17,3 28,4 26,9 11 6 15 8 NE 1016,8 23 0 0,0
22.09.2018 06:00:00 18,1 16,1 17,2 28,6 26,9 8 5 12 6 ENE 1017,1 20 0 0,0
22.09.2018 05:00:00 18,8 16,4 17,9 28,8 26,9 7 4 16 8 NE 1017,1 22 0 0,0
22.09.2018 04:00:00 19,0 16,6 18,2 28,9 26,9 11 6 16 9 NE 1016,8 24 0 0,0
22.09.2018 03:00:00 19,2 17,2 18,2 29,1 26,9 11 6 14 7 NE 1017,4 19 0 0,0
22.09.2018 02:00:00 20,0 17,8 19,1 29,3 26,9 6 3 9 5 NE 1017,5 15 0 0,0
22.09.2018 01:00:00 20,6 18,0 19,1 29,4 26,8 6 3 10 5 E 1017,6 14 0 0,0
22.09.2018 00:00:00 21,0 18,4 20,0 29,5 26,9 8 4 12 7 ENE 1017,7 17 0 0,0
21.09.2018 23:00:00 21,8 18,8 20,9 29,6 26,9 8 4 13 7 NE 1017,6 26 0 0,0
21.09.2018 22:00:00 22,5 19,7 21,7 29,6 26,9 7 4 11 6 ENE 1017,4 19 0 0,0
21.09.2018 21:00:00 23,4 20,0 22,3 29,5 26,9 5 3 8 5 E 1016,8 22 0 0,0
21.09.2018 20:00:00 24,4 20,3 23,4 29,4 26,9 4 2 12 7 SE 1016,1 26 4 0,0
21.09.2018 19:00:00 25,6 20,6 25,7 29,1 26,8 9 5 14 8 SW 1015,6 31 60 0,0
21.09.2018 18:00:00 26,7 21,5 28,3 28,8 26,9 11 6 20 11 SW 1015,3 28 60 0,0
21.09.2018 17:00:00 27,4 21,9 29,7 28,5 26,8 17 9 27 14 SSW 1015,5 46 60 0,0
21.09.2018 16:00:00 27,8 21,8 30,2 28,2 26,9 21 11 28 15 SSW 1015,7 16 60 0,0
21.09.2018 15:00:00 28,4 21,4 34,9 27,9 26,9 21 11 26 14 SSW 1015,4 20 60 0,0
21.09.2018 14:00:00 28,2 21,0 36,8 27,7 26,9 17 9 24 13 SW 1015,5 47 60 0,0
21.09.2018 13:00:00 28,5 21,0 35,0 27,6 26,9 17 9 27 14 SW 1015,7 53 60 0,0
21.09.2018 12:00:00 27,5 18,8 35,4 27,6 26,9 16 8 21 11 WSW 1015,9 60 60 0,0
21.09.2018 11:00:00 27,8 17,9 32,5 27,7 26,9 8 4 11 6 SW 1015,8 60 60 0,0
21.09.2018 10:00:00 25,9 16,7 26,1 27,9 26,9 6 3 13 7 NNE 1015,8 47 60 0,0
21.09.2018 09:00:00 21,6 16,3 19,4 28,0 26,8 9 5 18 10 NNE 1015,7 43 60 0,0
21.09.2018 08:00:00 18,8 15,5 17,8 28,2 26,9 10 6 18 10 NE 1015,7 34 18 0,0
21.09.2018 07:00:00 18,6 15,5 17,8 28,4 26,9 10 5 16 9 NE 1015,4 35 0 0,0
21.09.2018 06:00:00 18,8 15,8 17,9 28,6 26,9 8 5 16 9 NE 1015,5 32 0 0,0
21.09.2018 05:00:00 19,0 16,2 18,2 28,7 26,8 12 6 18 10 NE 1015,5 31 0 0,0
21.09.2018 04:00:00 19,3 16,7 18,6 28,9 26,8 10 6 16 9 NE 1015,7 24 0 0,0
21.09.2018 03:00:00 20,1 17,5 19,1 29,0 26,9 9 5 17 9 NE 1016,1 34 0 0,0
21.09.2018 02:00:00 20,1 17,5 19,3 29,2 26,9 9 5 14 8 NNE 1016,2 25 0 0,0
21.09.2018 01:00:00 20,7 18,1 20,0 29,3 26,9 8 4 15 8 NNE 1016,3 24 0 0,0
21.09.2018 00:00:00 20,9 18,3 20,2 29,4 26,9 8 5 13 7 NE 1016,3 19 0 0,0
20.09.2018 23:00:00 21,4 19,0 20,6 29,5 26,8 8 5 11 6 NE 1016,3 19 0 0,0
20.09.2018 22:00:00 22,6 19,6 21,9 29,5 26,9 5 3 9 5 ENE 1016,3 20 0 0,0
20.09.2018 21:00:00 23,5 20,4 22,3 29,4 26,9 5 3 6 4 NE 1016,1 18 0 0,0
20.09.2018 20:00:00 24,6 21,3 22,9 29,3 26,9 2 1 7 4 SSW 1015,6 22 0 0,0
20.09.2018 19:00:00 25,9 21,1 26,0 29,0 26,9 7 4 13 7 SW 1015,6 32 56 0,0
20.09.2018 18:00:00 27,2 21,0 28,3 28,7 26,8 11 6 24 13 SW 1015,7 37 48 0,0
20.09.2018 17:00:00 27,5 22,0 29,0 28,4 26,9 17 9 31 17 WSW 1015,7 20 54 0,0
20.09.2018 16:00:00 27,3 21,8 29,2 28,1 26,8 21 12 35 19 WSW 1015,6 46 56 0,0
20.09.2018 15:00:00 27,4 21,9 33,4 27,9 26,8 21 11 32 18 WSW 1015,8 56 60 0,0
20.09.2018 14:00:00 27,5 21,8 34,7 27,7 26,9 14 8 19 11 SW 1016,4 59 60 0,0
20.09.2018 13:00:00 26,8 21,1 35,1 27,6 26,9 13 7 16 9 SW 1016,7 54 60 0,0
20.09.2018 12:00:00 26,1 20,2 33,0 27,6 26,8 11 6 15 8 SW 1017,0 50 60 0,0
20.09.2018 11:00:00 25,6 19,5 31,4 27,7 26,8 10 6 14 7 WSW 1017,4 18 60 0,0
20.09.2018 10:00:00 25,7 18,4 25,7 27,8 26,8 3 2 9 5 SE 1017,4 46 60 0,0
20.09.2018 09:00:00 21,2 17,6 19,2 28,0 26,9 6 3 14 8 NE 1017,3 28 47 0,0
20.09.2018 08:00:00 19,1 17,1 18,3 28,1 26,8 9 5 14 7 NNE 1017,4 22 0 0,0
20.09.2018 07:00:00 19,1 17,1 18,2 28,3 26,9 9 5 16 9 NE 1017,3 23 0 0,0
20.09.2018 06:00:00 19,6 17,4 18,7 28,5 26,9 10 6 15 8 NNE 1017,5 28 0 0,0
20.09.2018 05:00:00 19,9 17,7 19,1 28,7 26,9 8 5 14 8 NE 1018,0 28 0 0,0
20.09.2018 04:00:00 19,9 17,5 19,4 28,8 26,9 9 5 13 7 NNE 1017,9 35 0 0,0
20.09.2018 03:00:00 19,8 17,8 18,8 29,0 26,9 9 5 14 8 NE 1018,4 26 0 0,0
20.09.2018 02:00:00 19,8 17,8 19,1 29,1 26,9 8 5 14 7 NE 1018,6 29 0 0,0
20.09.2018 01:00:00 20,2 18,0 19,5 29,3 26,8 7 4 12 6 NE 1019,1 32 0 0,0
20.09.2018 00:00:00 20,8 18,2 20,0 29,4 26,9 5 3 12 6 NE 1019,2 28 0 0,0
19.09.2018 23:00:00 21,4 18,8 20,6 29,5 26,9 8 4 13 7 NE 1019,1 26 0 0,0
19.09.2018 22:00:00 22,3 19,7 21,6 29,5 26,9 7 4 12 6 NE 1018,7 31 0 0,0
19.09.2018 21:00:00 23,0 20,0 21,9 29,4 26,9 4 2 8 4 E 1018,4 33 0 0,0
19.09.2018 20:00:00 24,2 20,3 22,8 29,2 26,8 0 0 9 5 N 1017,9 34 0 0,0
19.09.2018 19:00:00 25,5 20,5 25,9 29,0 26,9 6 4 18 10 SW 1017,9 45 47 0,0
19.09.2018 18:00:00 26,4 21,4 28,3 28,7 26,8 11 6 24 13 SW 1017,8 43 25 0,0
19.09.2018 17:00:00 26,0 21,0 28,0 28,4 26,8 14 8 22 12 SSW 1017,6 35 18 0,0
19.09.2018 16:00:00 27,9 21,4 31,4 28,1 26,9 17 9 25 14 SSW 1017,5 19 52 0,0
19.09.2018 15:00:00 28,5 21,3 35,5 27,8 26,8 17 9 24 13 SW 1017,5 20 58 0,0
19.09.2018 14:00:00 28,0 21,8 36,5 27,6 26,8 18 10 25 14 SW 1018,0 47 60 0,0
19.09.2018 13:00:00 27,3 20,6 35,5 27,6 26,9 14 7 17 9 SW 1018,3 53 60 0,0
19.09.2018 12:00:00 26,4 19,8 30,8 27,6 26,9 10 6 16 8 SSW 1018,6 20 47 0,0
19.09.2018 11:00:00 26,3 18,4 30,2 27,6 26,8 10 5 14 8 SSW 1018,6 46 15 0,0
19.09.2018 10:00:00 24,7 17,7 24,1 27,7 26,8 4 2 9 5 NW 1017,9 49 14 0,0

tt = Température de l'air
td = dewpoint
tt 5cm = Température de l'air 5cm
tt -20cm = Température de l'air -20cm
tt -100cm = Température de l'air -100cm
ff = Vitesse du vent
fx = gusts
dd = Direction du vent
ppp = reduced air pressure
vv = visibility
sd = Ensoleillement
rr = Quantités de précipitations

stations d'obs. à proximité